Weather in Nova Odesa

Ukraine / Mykolaiv District     47°18′39″N   31°46′26″E
temp.,
°C
wind,
m/s
gust,
m/s
humid.,
%
clouds,
%
prec.,
mm/h
press.,
hPa
HPBL,
m
15 may, sat
sat1500:00+12s410930 0.0 1010180
03:00+12s489450 0.0 1010147
06:00+12s47940 0.0 1011153
09:00+18sw57600 0.0 1012556
12:00+22sw56445 0.0 10121647
15:00+23ssw554344 0.0 10112175
18:00+21ssw665545 0.0 1012623
21:00+16ssw3572100 0.0 101294
16 may, sun
sun1600:00+13sw11780 0.0 101310
03:00+13se1177100 0.0 101310
06:00+13ne2275100 0.0 101224
09:00+18ne3360100 0.0 1012312
12:00+23ene4442100 0.0 10111293
15:00+25e3437100 0.0 10091991
18:00+23ene2249100 0.0 100832
21:00+19nne4460100 0.0 100753
17 may, mon
mon1700:00+17ene41173100 0.1 1006253
03:00+16nw3692100 2.9 1004213
06:00+15nnw6119660 11.0 1003337
09:00+19n688374 12.4 1004743
12:00+17wnw5892100 3.6 1003514
15:00+17wnw7118397 12.5 1004614
18:00+19wnw4671100 0.0 1005722
21:00+15ssw3894100 2.9 1006273
18 may, tue
tue1800:00+13s48953 0.3 1006170
03:00+13s369614 0.3 1006109
06:00+15sse48915 0.0 1006204
09:00+19s6975100 0.2 1006503
12:00+22sw56565 0.1 10061332
15:00+23w675442 1.3 10071713
18:00+19wnw56685 2.5 10081035
21:00+15w22777 3.1 100911
19 may, wed
wed1900:00+14nw11814 0.0 101110
03:00+13ne1183100 0.0 101111
06:00+13ne2284100 0.0 101133
09:00+15e2377100 0.8 1011255
12:00+17e3369100 0.1 1011688
15:00+17ene2372100 1.7 1010355
18:00+16e4582100 4.1 1009276
21:00+14e3595100 6.1 1010148